Regional Weather Roundup
Issued by NWS

Home | Current Version | Previous Version | Graphics & Text | Print | Product List | Glossary On
Versions: 1 2 3 4 5 6 7 8 9 10 11 12 13 14 15 16 17 18 19 20 21 22 23 24 25 26 27 28 29 30 31 32 33 34 35 36 37 38 39 40 41 42 43 44 45 46 47 48 49 50
000
ASUS43 KMKX 242011
RWRWI

WISCONSIN REGIONAL WEATHER ROUNDUP
NATIONAL WEATHER SERVICE MILWAUKEE/SULLIVAN WI
300 PM CDT WED AUG 24 2016

NOTE: "FAIR" INDICATES FEW OR NO CLOUDS BELOW 12,000 FEET WITH NO
SIGNIFICANT WEATHER AND/OR OBSTRUCTIONS TO VISIBILITY.

WIZ001-002-006>008-014>016-023>028-242100-
NORTHWEST WISCONSIN

CITY           SKY/WX    TMP DP  RH WIND       PRES   REMARKS
SUPERIOR ARPT  MOSUNNY   83  57  40 W14       29.82R HX  82
ASHLAND        CLOUDY    78  67  68 W10       29.83R HX  80
HAYWARD        PTSUNNY   76  66  71 SW9       29.89R
SIREN          CLOUDY    80  51  37 W10       29.90R
CUMBERLAND     MOSUNNY   77  61  57 W13       29.91F
RICE LAKE      PTSUNNY   77  66  68 W7        29.92S
CHETEK         NOT AVBL
LADYSMITH      CLOUDY    76  66  70 W10       29.92S
EAU CLAIRE     CLOUDY    77  67  71 W9        29.90R
MENOMONIE      CLOUDY    78  68  72 W8        29.91S
NEW RICHMOND   MOSUNNY   78  63  59 W10       29.92S HX  80
OSCEOLA        CLOUDY    79  56  45 W10G18    29.94S HX  80
$$

WIZ003>005-009-010-017-018-242100-
NORTH CENTRAL WISCONSIN

CITY           SKY/WX    TMP DP  RH WIND       PRES   REMARKS
MANITOWISH WTR NOT AVBL
ARBOR VITAE    CLOUDY    73  67  82 W6        29.88R
WOODRUFF       CLOUDY    73  67  82 W6        29.88R
RHINELANDER    CLOUDY    73  69  87 W10       29.89R
EAGLE RIVER    LGT RAIN  71  68  90 W9        29.87R
LAND O LAKES   CLOUDY    74  66  77 W7        29.86S
PHILLIPS       CLOUDY    74  67  77 W5        29.89R
TOMAHAWK       PTSUNNY   76  66  71 W14       29.89S
MEDFORD        CLOUDY    76  68  76 W13       29.90R
MERRILL        PTSUNNY   78  67  71 W15       29.88S
$$

WIZ029-030-035-036-043>047-242100-
CENTRAL WISCONSIN

CITY           SKY/WX    TMP DP  RH WIND       PRES   REMARKS
WAUSAU         MOSUNNY   77  67  71 W12       29.87S
MOSINEE        PTSUNNY   75  72  88 SW9       29.91S
MARSHFIELD     MOSUNNY   79  67  66 W12       29.90S HX  81
STEVENS POINT  CLOUDY    71  70  97 W9        29.91S
WAUPACA        CLOUDY    80  72  76 SW16G22   29.89R HX  84
WAUTOMA        CLOUDY    77  71  82 W10       29.90R
WISC RAPIDS    CLOUDY    73  72  96 W8        29.92S
CAMP DOUGLAS   CLOUDY    75  72  88 W10       29.92R
$$

WIZ011>013-019>022-031-037>040-048>050-242100-
NORTHEAST WISCONSIN

CITY           SKY/WX    TMP DP  RH WIND       PRES   REMARKS
ANTIGO         CLOUDY    73  67  82 W13       29.88F
SHAWANO        CLOUDY    78  70  76 W8G18     29.87S HX  80
OCONTO         NOT AVBL
STURGEON BAY   CLOUDY    78  69  73 SW12      29.86S HX  80
GREEN BAY      CLOUDY    78  71  79 SW10      29.86S HX  80
MANITOWOC      MOSUNNY   83  68  60 SW15G23   29.87S HX  86
APPLETON       NOT AVBL
CLINTONVILLE   CLOUDY    75  70  83 W12       29.87S
OSHKOSH        CLOUDY    81  71  71 SW10G17   29.87F HX  85
$$

WIZ032>034-041-042-053>061-242100-
SOUTHWEST WISCONSIN

CITY           SKY/WX    TMP DP  RH WIND       PRES   REMARKS
LA CROSSE      PTSUNNY   84  32  15 VRB6      29.90R HX  81
SPARTA         CLOUDY    78  71  81 SW5       29.92S HX  80
VIROQUA        CLOUDY    79  73  81 W6        29.94R HX  82
BOSCOBEL       LGT RAIN  84  74  71 W3        29.90F HX  91
PRAIRIE DU CHI PTSUNNY   84  71  64 W6        29.90S HX  88
PLATTEVILLE    MOSUNNY   84  75  73 SW8       29.93F HX  92
$$

WIZ056-057-062-063-064-067-068-242100-
SOUTH CENTRAL WISCONSIN

CITY           SKY/WX    TMP DP  RH WIND       PRES   REMARKS
REEDSBURG      NOT AVBL
BARABOO/DELLS  CLOUDY    77  70  79 SW9       29.92S
LONE ROCK      CLOUDY    82  74  76 NW5       29.91F HX  88
MINERAL POINT  PTSUNNY   84  73  70 W7        29.93F HX  91
MADISON        PTSUNNY   81  71  71 VRB7      29.91R HX  85
MIDDLETON      PTSUNNY   84  73  69 SW10      29.92S HX  90
WATERTOWN      PTSUNNY   81  72  76 SW12G17   29.90F HX  85
MONROE         MOSUNNY   82  70  65 SW13G20   29.93S HX  86
JANESVILLE     MOSUNNY   82  72  69 SW12      29.91F HX  87
$$

WIZ051-052-058>065-066-070>072-242100-
SOUTHEAST WISCONSIN

CITY           SKY/WX    TMP DP  RH WIND       PRES   REMARKS
MILWAUKEE      CLOUDY    83  70  64 W12       29.90F HX  87
WAUKESHA       MOSUNNY   79  68  69 SW10G18   29.92F HX  81
MILWAUKEE/TIMM MOSUNNY   81  66  61 SW12G18   29.90F HX  83
RACINE         CLOUDY    80  70  71 SW10G17   29.92S HX  83
BURLINGTON     CLOUDY    80  69  68 SW8       29.91F HX  83
KENOSHA        MOSUNNY   82  73  74 SW12G22   29.91F HX  87
FOND DU LAC    CLOUDY    81  72  74 SW8G18    29.89S HX  85
SHEBOYGAN      MOSUNNY   83  69  62 SW17G23   29.88F HX  86
WEST BEND      PTSUNNY   81  68  65 W9G18     29.90F HX  83
JUNEAU         CLOUDY    80  72  75 SW15      29.92S HX  84
$$

LSZ147-162-242100-
LAKE SUPERIOR

STATION/POSITION TIME  TEMP    WIND        PRES    WAVE
                       AIR SEA DIR/SP/G            HT/PER
                 (UTC) (F)     (DEG/KT/KT) (MB)    (FT/S)
W MID LAKE BUOY  1950   69 69  240/ 10/ 12 1007.9F
DEVILS ISLAND    2000   71     230/ 19/ 22 1008.7F
PORT WING        1840   74     270/ 13/ 16 1009.8F
SAXON HARBOR     1900   75      60/  4/  8 1009.5S
$$

LMZ867-665-643>646-242100-
LAKE MICHIGAN

STATION/POSITION TIME  TEMP    WIND        PRES    WAVE
                       AIR SEA DIR/SP/G            HT/PER
                 (UTC) (F)     (DEG/KT/KT) (MB)    (FT/S)
CHAMBERS ISLAND  1900   73     190/  5/ 10 1010.8R
S GREEN BAY BUOY 1930   74 73  240/  8/ 10 1010.4S
N MID LAKE BUOY  1950   71 71  210/ 16/ 17 1009.6F   7/ 8
NORTHPORT PIER   1900   69     150/  5/  7 1010.8R
SISTER BAY       1907   71     230/ 12/ 15   N/A
KEWAUNEE LAKESHO 1900          210/ 12/ 17 1010.7F
SHEBOYGAN LAKESH 2000   73     220/ 16/ 24 1010.9F
PORT WASHINGTON  1900   83     240/  8/ 16 1012.9F
ATWATER BUOY     2000   72 46  230/ 10/ 16   N/A
MILWAUKEE LAKESH 1910   78     220/ 19/ 20   N/A
S MID LAKE BUOY  1950   74 74  190/ 12/ 16 1012.5F   3/ 6
KENOSHA   LAKESH 2000   79     240/ 11/ 18 1012.5F
$$

TC  - TEMPERATURE IN CELSIUS
VSB - VISIBILITY IN STATUTE MILES
WCI - WIND CHILL INDEX
HX  - HEAT INDEX




USA.gov is the U.S. government's official web portal to all federal, state and local government web resources and services.